Central Point, OR

3:28 AM PST on February 20, 2017 (GMT -0800)
Rogue Valley International-Medford

Weather History for KMFR - May, 2014

Change the Weather History Date:

Thursday, May 29, 2014

  Actual Average Record
Temperature  
Mean Temperature 61 °F 63 °F  
Max Temperature 80 °F 77 °F 98 °F (1931)
Min Temperature 41 °F 49 °F 30 °F (1979)
Degree Days  
Heating Degree Days 4 4  
Month to date heating degree days 107 189  
Since 1 July heating degree days 4157 4188  
Cooling Degree Days 0 2  
Month to date cooling degree days 50 34  
Year to date cooling degree days 54 37  
Growing Degree Days 11 (Base 50)    
Moisture  
Dew Point 38 °F    
Average Humidity 50    
Maximum Humidity 82    
Minimum Humidity 17    
Precipitation  
Precipitation 0.00 in 0.04 in 0.71 in (1932)
Month to date precipitation 0.47 1.23  
Year to date precipitation 10.12 8.76  
Snow  
Snow 0.00 in 0.00 in - ()
Month to date snowfall 0.0 0.0  
Since 1 July snowfall 3.4 4.1  
Snow Depth 0.00 in    
Sea Level Pressure  
Sea Level Pressure 30.09 in    
Wind  
Wind Speed 4 mph (North)    
Max Wind Speed 15 mph    
Max Gust Speed 18 mph    
Visibility 10 miles    
Events      
T = Trace of Precipitation, MM = Missing Value Source: NWS Daily Summary

Daily Weather History Graph

Daily Weather History Graph

Search for Another Location

Airport or City:

Trip Planner

Search our weather history database for the weather conditions in past years. The results will help you decide how hot, cold, wet, or windy it might be!

Date:

Astronomy

May. 29, 2014 Rise Set
Actual Time 5:38 AM PDT 8:39 PM PDT
Civil Twilight 5:05 AM PDT 9:13 PM PDT
Nautical Twilight 4:22 AM PDT 9:56 PM PDT
Astronomical Twilight 3:31 AM PDT 10:47 PM PDT
Moon 6:37 AM PDT (5/29) 9:33 PM PDT (5/29)
Length of Visible Light 16h 08m
Length of Day
15h 00m
New Moon, 1% of the Moon is Illuminated
May 29
New Moon
Jun 5
First Quarter
Jun 12
Full
Jun 19
Last Quarter
Jun 27
New

Hourly Weather History & Observations

Time (PDT) Temp. Windchill Dew Point Humidity Pressure Visibility Wind Dir Wind Speed Gust Speed Precip Events Conditions
12:53 AM 51.8 °F - 39.2 °F 62% 30.22 in 10.0 mi North 3.5 mph - N/A   Clear
1:53 AM 48.9 °F - 39.9 °F 71% 30.22 in 10.0 mi Calm Calm - N/A   Clear
2:53 AM 46.0 °F - 37.9 °F 73% 30.21 in 10.0 mi Calm Calm - N/A   Clear
3:53 AM 46.0 °F - 39.0 °F 76% 30.21 in 10.0 mi Calm Calm - N/A   Clear
4:53 AM 43.0 °F 41.3 °F 37.0 °F 80% 30.21 in 10.0 mi NNE 3.5 mph - N/A   Clear
5:53 AM 44.1 °F - 37.9 °F 79% 30.21 in 10.0 mi Calm Calm - N/A   Clear
6:53 AM 44.1 °F 41.5 °F 37.9 °F 79% 30.21 in 10.0 mi NNW 4.6 mph - N/A   Clear
7:53 AM 46.9 °F - 39.0 °F 74% 30.19 in 10.0 mi NNE 3.5 mph - N/A   Clear
8:53 AM 51.1 °F - 39.0 °F 63% 30.19 in 10.0 mi NW 3.5 mph - N/A   Clear
9:53 AM 55.9 °F - 39.9 °F 55% 30.16 in 10.0 mi Calm Calm - N/A   Clear
10:53 AM 60.1 °F - 39.0 °F 46% 30.13 in 10.0 mi North 4.6 mph - N/A   Clear
11:53 AM 64.0 °F - 35.1 °F 34% 30.10 in 10.0 mi ENE 3.5 mph - N/A   Clear
12:53 PM 69.1 °F - 33.1 °F 26% 30.07 in 10.0 mi North 4.6 mph - N/A   Clear
1:53 PM 71.6 °F - 33.8 °F 25% 30.05 in 10.0 mi Calm Calm - N/A   Clear
2:53 PM 75.2 °F - 32.0 °F 21% 30.02 in 10.0 mi NNW 5.8 mph - N/A   Clear
3:53 PM 77.0 °F - 30.9 °F 19% 29.98 in 10.0 mi North 4.6 mph - N/A   Clear
4:53 PM 78.1 °F - 30.9 °F 18% 29.96 in 10.0 mi Calm Calm - N/A   Clear
5:53 PM 79.0 °F - 30.0 °F 17% 29.93 in 10.0 mi NW 6.9 mph - N/A   Clear
6:53 PM 78.1 °F - 41.0 °F 27% 29.93 in 10.0 mi NNW 13.8 mph - N/A   Clear
7:53 PM 73.9 °F - 43.0 °F 33% 29.94 in 10.0 mi NNW 9.2 mph - N/A   Clear
8:53 PM 69.1 °F - 43.0 °F 39% 29.96 in 10.0 mi NNW 5.8 mph - N/A   Clear
9:53 PM 66.0 °F - 44.1 °F 45% 29.98 in 10.0 mi NNW 5.8 mph - N/A   Clear
10:53 PM 60.1 °F - 45.0 °F 57% 29.99 in 10.0 mi NNE 4.6 mph - N/A   Clear
11:53 PM 61.0 °F - 44.1 °F 54% 29.99 in 10.0 mi North 5.8 mph - N/A   Clear